Rome Ciampino, Italy

8:08 AM CEST on June 28, 2017 (GMT +0200)
Ciampino

Weather History for LIRA - May, 2013

Change the Weather History Date:

Saturday, May 25, 2013

  Actual Average Record
Temperature  
Mean Temperature 56 °F -  
Max Temperature 62 °F 80 °F 84 °F (2006)
Min Temperature 51 °F 57 °F 49 °F (2015)
Degree Days  
Heating Degree Days 8    
Growing Degree Days 6 (Base 50)    
Moisture  
Dew Point 46 °F    
Average Humidity 67    
Maximum Humidity 77    
Minimum Humidity 52    
Precipitation  
Precipitation 0.00 in 0.05 in - ()
Sea Level Pressure  
Sea Level Pressure 29.84 in    
Wind  
Wind Speed 8 mph ()    
Max Wind Speed 18 mph    
Max Gust Speed 33 mph    
Visibility 6.2 miles    
Events Rain    
Averages and records for this station are not official NWS values.
T = Trace of Precipitation, MM = Missing Value Source: Averaged Metar Reports

Daily Weather History Graph

Daily Weather History Graph

Search for Another Location

Airport or City:

Trip Planner

Search our weather history database for the weather conditions in past years. The results will help you decide how hot, cold, wet, or windy it might be!

Date:

Astronomy

May. 25, 2013 Rise Set
Actual Time 5:41 AM CEST 8:32 PM CEST
Civil Twilight 5:08 AM CEST 9:05 PM CEST
Nautical Twilight 4:27 AM CEST 9:47 PM CEST
Astronomical Twilight 3:39 AM CEST 10:35 PM CEST
Moon 9:02 PM CEST (5/25) 5:52 AM CEST (5/25)
Length of Visible Light 15h 56m
Length of Day
14h 51m
Full, 100% of the Moon is Illuminated
May 25
Full
May 31
Last Quarter
Jun 8
New
Jun 16
First Quarter
Jun 23
Full

Hourly Weather History & Observations

Time (CEST) Temp. Dew Point Humidity Pressure Visibility Wind Dir Wind Speed Gust Speed Precip Events Conditions
12:15 AM 53.6 °F 44.6 °F 72% 29.89 in 6.2 mi South 3.5 mph - N/A   Partly Cloudy
12:45 AM 53.6 °F 46.4 °F 77% 29.89 in 6.2 mi South 5.8 mph - N/A   Partly Cloudy
1:15 AM 51.8 °F 44.6 °F 76% 29.89 in 6.2 mi South 4.6 mph - N/A   Scattered Clouds
1:45 AM 53.6 °F 46.4 °F 77% 29.89 in 6.2 mi South 5.8 mph - N/A   Scattered Clouds
2:15 AM 53.6 °F 44.6 °F 72% 29.86 in 6.2 mi South 5.8 mph - N/A   Partly Cloudy
2:45 AM 53.6 °F 46.4 °F 77% 29.86 in 6.2 mi South 6.9 mph - N/A   Partly Cloudy
3:15 AM 53.6 °F 46.4 °F 77% 29.83 in 6.2 mi South 6.9 mph - N/A   Scattered Clouds
3:45 AM 53.6 °F 46.4 °F 77% 29.83 in 6.2 mi South 8.1 mph - N/A   Scattered Clouds
4:15 AM 53.6 °F 46.4 °F 77% 29.83 in 6.2 mi South 8.1 mph - N/A   Scattered Clouds
4:45 AM 55.4 °F 46.4 °F 72% 29.83 in 6.2 mi SSE 6.9 mph - N/A   Scattered Clouds
5:15 AM 55.4 °F 46.4 °F 72% 29.80 in 6.2 mi SSE 8.1 mph - N/A   Scattered Clouds
5:45 AM 55.4 °F 46.4 °F 72% 29.80 in 6.2 mi South 6.9 mph - N/A   Scattered Clouds
6:15 AM 55.4 °F 44.6 °F 67% 29.80 in 6.2 mi SSE 6.9 mph - N/A   Scattered Clouds
6:45 AM 55.4 °F 46.4 °F 72% 29.80 in 6.2 mi South 8.1 mph - N/A   Scattered Clouds
7:15 AM 55.4 °F 46.4 °F 72% 29.83 in 6.2 mi SSE 6.9 mph - N/A   Scattered Clouds
7:45 AM 57.2 °F 46.4 °F 67% 29.83 in 6.2 mi SSE 6.9 mph - N/A   Scattered Clouds
8:15 AM 59.0 °F 44.6 °F 59% 29.83 in 6.2 mi South 6.9 mph - N/A   Scattered Clouds
8:45 AM 59.0 °F 44.6 °F 59% 29.83 in 6.2 mi South 6.9 mph - N/A   Scattered Clouds
9:15 AM 60.8 °F 46.4 °F 59% 29.83 in 6.2 mi SSE 8.1 mph - N/A   Scattered Clouds
9:45 AM 60.8 °F 46.4 °F 59% 29.83 in 6.2 mi SSW 8.1 mph - N/A   Scattered Clouds
10:15 AM 59.0 °F 46.4 °F 63% 29.86 in 6.2 mi WSW 8.1 mph - N/A   Scattered Clouds
10:45 AM 62.6 °F 44.6 °F 52% 29.86 in 6.2 mi SW 9.2 mph - N/A   Scattered Clouds
11:15 AM 62.6 °F 44.6 °F 52% 29.86 in 6.2 mi SW 9.2 mph - N/A   Scattered Clouds
11:45 AM 62.6 °F 44.6 °F 52% 29.86 in 6.2 mi SSW 11.5 mph - N/A Rain Light Rain
12:15 PM 62.6 °F 48.2 °F 59% 29.86 in 6.2 mi SW 10.4 mph - N/A   Scattered Clouds
12:45 PM 62.6 °F 46.4 °F 55% 29.86 in 6.2 mi SW 13.8 mph - N/A   Scattered Clouds
1:15 PM 62.6 °F 48.2 °F 59% 29.86 in 6.2 mi SW 13.8 mph 27.6 mph N/A   Scattered Clouds
1:45 PM 62.6 °F 46.4 °F 55% 29.86 in 6.2 mi SW 17.3 mph 29.9 mph N/A   Scattered Clouds
2:15 PM 62.6 °F 48.2 °F 59% 29.86 in 6.2 mi WSW 16.1 mph 31.1 mph N/A   Scattered Clouds
2:45 PM 60.8 °F 48.2 °F 63% 29.86 in 6.2 mi SW 16.1 mph 31.1 mph N/A   Scattered Clouds
3:15 PM 59.0 °F 48.2 °F 67% 29.86 in 6.2 mi SW 16.1 mph 29.9 mph N/A   Scattered Clouds
3:45 PM 59.0 °F 50.0 °F 72% 29.86 in 5.6 mi SW 15.0 mph - N/A Rain Light Rain
4:15 PM 57.2 °F 50.0 °F 77% 29.86 in 5.6 mi SW 18.4 mph 31.1 mph N/A Rain Light Rain
4:45 PM 59.0 °F 48.2 °F 67% 29.86 in 6.2 mi SW 15.0 mph 29.9 mph N/A Rain Light Rain
5:15 PM 57.2 °F 46.4 °F 67% 29.86 in 6.2 mi SW 13.8 mph - N/A Rain Light Rain
5:45 PM 59.0 °F 48.2 °F 67% 29.83 in 6.2 mi SW 12.7 mph 25.3 mph N/A   Scattered Clouds
6:15 PM 59.0 °F 48.2 °F 67% 29.83 in 6.2 mi WSW 18.4 mph 33.4 mph N/A   Scattered Clouds
6:45 PM 59.0 °F 46.4 °F 63% 29.83 in 6.2 mi SW 17.3 mph 32.2 mph N/A   Scattered Clouds
7:15 PM 59.0 °F 46.4 °F 63% 29.83 in 6.2 mi SW 13.8 mph - N/A   Scattered Clouds
7:45 PM 59.0 °F 44.6 °F 59% 29.83 in 6.2 mi SW 16.1 mph 27.6 mph N/A   Scattered Clouds
8:15 PM 57.2 °F 46.4 °F 67% 29.83 in 6.2 mi WSW 11.5 mph - N/A   Scattered Clouds
8:45 PM 57.2 °F 48.2 °F 72% 29.83 in 6.2 mi WSW 9.2 mph - N/A   Scattered Clouds
9:15 PM 55.4 °F 44.6 °F 67% 29.83 in 6.2 mi SW 5.8 mph - N/A   Scattered Clouds
9:45 PM 55.4 °F 44.6 °F 67% 29.83 in 6.2 mi SW 6.9 mph - N/A   Scattered Clouds
10:15 PM 53.6 °F 46.4 °F 77% 29.83 in 6.2 mi SW 6.9 mph - N/A   Partly Cloudy
10:45 PM 53.6 °F 46.4 °F 77% 29.83 in 6.2 mi SW 4.6 mph - N/A   Partly Cloudy
11:15 PM 53.6 °F 46.4 °F 77% 29.83 in 6.2 mi SSW 3.5 mph - N/A   Partly Cloudy
11:45 PM 53.6 °F 46.4 °F 77% 29.83 in 6.2 mi SW 8.1 mph - N/A   Partly Cloudy